Regional Weather Roundup
Issued by NWS Glasgow, MT

Home | Current Version | Previous Version | Text Only | Print | Product List | Glossary On
Versions: 1 2 3 4 5 6 7 8 9 10 11 12 13 14 15 16 17 18 19 20 21 22 23 24 25 26 27 28 29 30 31 32 33 34 35 36 37 38 39 40 41 42 43 44 45 46 47 48 49 50
000
ASUS45 KGGW 260315
RWRGGW
HOURLY WEATHER ROUNDUP FOR NORTHEAST MONTANA
NATIONAL WEATHER SERVICE GLASGOW MONTANA
900 PM MDT SAT APR 25 2015

NOTE: "FAIR" INDICATES FEW OR NO CLOUDS BELOW 12,000 FEET WITH NO
SIGNIFICANT WEATHER AND/OR OBSTRUCTIONS TO VISISBILITY.

NORTHEAST MONTANA


CITY           SKY/WX    TMP DP  RH WIND       PRES   REMARKS
GLASGOW        CLEAR     41  37  86 N9        29.84R
PLENTYWOOD       N/A    N/A N/A N/A N13G22      N/A
WOLF POINT     MOCLDY    43  39  86 W7        29.84R
JORDAN           N/A     40  37  89 CALM      29.85R
WINNETT          N/A     41  36  82 NE5         N/A
SIDNEY         CLOUDY    45  41  87 CALM      29.85R
GLENDIVE       CLOUDY    45  41  87 W5        29.87R
MALTA            N/A     45  42  89 W3G12       N/A
SCOBEY           N/A     38  30  73 W10       29.81R
OPHEIM           N/A     36  34  93 NW8       29.74F

FORT PECK REPORTS


CITY           SKY/WX    TMP DP  RH WIND       PRES   REMARKS
FORT PECK        N/A     42  40  92 NW9         N/A
THE PINES        N/A     43  39  86 N3          N/A

SOUTHEAST MONTANA


CITY           SKY/WX    TMP DP  RH WIND       PRES   REMARKS
BILLINGS       MOCLDY    46  35  65 E9        29.87R
MILES CITY     CLOUDY    47  42  83 CALM      29.87R
BAKER          CLOUDY    42  40  92 W10       29.88R
LIVINGSTON     MOCLDY    44  34  67 E8        29.82R

CENTRAL MONTANA


CITY           SKY/WX    TMP DP  RH WIND       PRES   REMARKS
HAVRE          MOCLDY    40  31  70 N9        29.91R
LEWISTOWN      CLEAR     41  32  70 N3        29.86R
GREAT FALLS    CLOUDY    44  29  55 N8        29.88R
CUT BANK       MOCLDY    37  26  64 N8        29.92R
HELENA         CLOUDY    44  33  65 NW7       29.84R
BUTTE          CLOUDY    40  29  64 SE7       29.81R
BOZEMAN        CLOUDY    44  34  67 S5        29.82R

WESTERN MONTANA


CITY           SKY/WX    TMP DP  RH WIND       PRES   REMARKS
MISSOULA       MOCLDY    44  30  57 NW18      29.85R
KALISPELL      NOT AVBL

NORTH DAKOTA


CITY           SKY/WX    TMP DP  RH WIND       PRES   REMARKS
WILLISTON      LGT RAIN  47  45  93 CALM      29.82R
DICKINSON      CLOUDY    47  45  93 SE12      29.83R FOG
MINOT          CLOUDY    50  40  68 SE13      29.88R
BISMARCK       CLOUDY    48  43  82 E6        29.91R

SOUTHERN SASKATCHEWAN


CITY           SKY/WX    TMP DP  RH WIND       PRES   REMARKS
REGINA         CLOUDY    50  41  71 E17G24    29.78F
ESTEVAN        CLOUDY    52  43  71 SE21      29.83R
SWIFT CURRENT  SNOW      30  30 100 NW20      29.85S VSB 3/8



USA.gov is the U.S. government's official web portal to all federal, state and local government web resources and services.